User: anonymous   Login
Location: Poughquag
(41.6090°N, 73.6820°W)
Time: 18:18:59
(UTC-04:00)
Language:

SPROUT - Orbit

View from above orbital plane
View from above orbital plane
View from above satellite
View from above satellite

Ground track
Ground track

The orbit data is extracted from the following two-line orbital elements,

1 39770U 14029E   20304.25864899  .00000928  00000-0  10736-3 0  9991
2 39770  97.9045  50.0346 0008027 241.5401 118.5057 14.87933259349109
Epoch (UTC): 30 October 2020 06:12:27
Eccentricity: 0.0008027
inclination: 97.9045°
perigee height: 599 km
apogee height: 610 km
right ascension of ascending node: 50.0346°
argument of perigee: 241.5401°
revolutions per day: 14.87933259
mean anomaly at epoch: 118.5057°
orbit number at epoch: 34910

The dashed part of the orbit path shows where the satellite is in the earth's shadow,  

DLR